[[{"header":{"parameterUnit":"m.s-1","parameterCategory":1,"la1":30.2991,"la2":30.254,"lo1":-89.0895,"lo2":-89.0444,"dx":0.0017,"dy":0.0017,"nx":28,"ny":28,"refTime":"2022-12-07T03:00:00:Z","depth":0,"parameterNumber":2,"parameterNumberName":"U-component_of_WINDS"},"data":[0,0,0,0,0,0,0,0,0,0,0,0,0,0,0,0,0,0,0,0,0,0,0,0,0,0,0,0,0,0,0,0,0,0,0,0,0,0,0,0,0,0,0,0,0,0,0,0,0,0,0,0,0,0,0,0,0,0,-0.4748,-0.4748,0,-0.4786,-0.4787,-0.4787,-0.4791,-0.4791,-0.4791,-0.479,-0.4832,-0.4833,-0.4834,0,0,0,0,0,0,0,0,0,0,0,0,0,-0.4679,-0.4681,-0.4747,-0.4748,-0.4748,-0.4786,-0.4787,-0.4787,-0.4791,-0.4791,-0.479,-0.479,-0.4831,-0.4833,-0.4835,0,0,0,0,0,0,0,0,0,0,0,0,0,-0.4713,-0.4681,-0.4747,-0.4755,-0.4756,-0.4786,-0.4787,-0.4787,-0.4791,-0.4791,-0.479,-0.479,-0.483,-0.4833,-0.4835,-0.486,0,0,-0.4842,-0.4842,0,0,0,0,0,0,0,0,-0.4711,-0.4715,-0.4753,-0.4755,-0.4756,-0.4783,-0.4778,-0.4812,-0.4792,-0.4778,-0.479,-0.4789,-0.4816,-0.4819,-0.4828,-0.4862,-0.4864,-0.4842,-0.4843,-0.4844,-0.4845,0,0,0,0,0,0,0,-0.4708,-0.4714,-0.4763,-0.4754,-0.4755,-0.4757,-0.4761,-0.4784,-0.48,-0.4779,-0.478,-0.4784,-0.4817,-0.4826,-0.4829,-0.4865,-0.4842,-0.4844,-0.4845,-0.4846,-0.4923,-0.4924,0,0,0,0,0,0,-0.4704,-0.4712,-0.4762,-0.4764,-0.4731,-0.4759,-0.4764,-0.4775,-0.48,-0.4803,-0.4785,-0.4784,-0.4822,-0.4826,-0.4831,-0.4863,-0.4844,-0.4846,-0.4847,-0.4923,-0.4923,-0.4924,0,0,0,0,0,0,-0.4703,-0.4709,-0.476,-0.4738,-0.4745,-0.4761,-0.4774,-0.4776,-0.4785,-0.4804,-0.4807,-0.4791,-0.4822,-0.4827,-0.4853,-0.4864,-0.4847,-0.4849,-0.4922,-0.4923,-0.4924,-0.4927,0,0,0,0,0,0,-0.4701,-0.4708,-0.4718,-0.4738,-0.4746,-0.4781,-0.4774,-0.4777,-0.4789,-0.4789,-0.4811,-0.4814,-0.4822,-0.485,-0.4855,-0.4867,-0.4851,-0.4921,-0.4922,-0.4924,-0.4926,-0.4928,-0.493,0,0,0,0,0,-0.4698,-0.4717,-0.4718,-0.4724,-0.4758,-0.4782,-0.4786,-0.4795,-0.479,-0.48,-0.4812,-0.4813,-0.4862,-0.4852,-0.4859,-0.4871,-0.492,-0.4922,-0.4923,-0.4925,-0.4928,-0.493,0,0,0,0,0,0,-0.4698,-0.472,-0.4721,-0.4747,-0.4762,-0.4782,-0.4795,-0.4797,-0.4815,-0.4814,-0.4825,-0.483,-0.4855,-0.4866,-0.4855,-0.4898,-0.4891,-0.4894,-0.489,-0.4893,-0.4895,-0.4892,-0.4853,0,0,0,0,0,-0.4701,-0.4718,-0.4736,-0.4757,-0.4765,-0.4779,-0.479,-0.4795,-0.4812,-0.4819,-0.4833,-0.4849,-0.4869,-0.4881,-0.49,-0.4928,-0.4933,-0.494,-0.4942,-0.4943,-0.4946,-0.4962,-0.4966,-0.493,-0.493,-0.493,0,0,-0.4707,-0.4721,-0.4731,-0.4758,-0.477,-0.4789,-0.4784,-0.4804,-0.4818,-0.4822,-0.4847,-0.4858,-0.4877,-0.4904,-0.4917,-0.4914,-0.4957,-0.4945,-0.4946,-0.4948,-0.4964,-0.4968,-0.4971,-0.4931,-0.4931,-0.493,0,0,-0.4727,-0.4739,-0.4758,-0.4771,-0.4791,-0.48,-0.4804,-0.4824,-0.4832,-0.4857,-0.486,-0.4878,-0.4911,-0.4925,-0.4936,-0.4963,-0.4965,-0.4969,-0.4979,-0.4995,-0.4998,-0.5001,-0.5011,-0.5014,-0.4971,-0.4971,-0.4971,0,-0.4733,-0.476,-0.4768,-0.4788,-0.48,-0.4804,-0.4824,-0.4836,-0.4861,-0.4869,-0.4865,-0.4907,-0.4921,-0.4952,-0.4958,-0.4967,-0.4974,-0.4966,-0.4997,-0.4999,-0.5002,-0.5012,-0.5016,-0.4972,-0.4972,-0.4972,-0.4972,0,-0.4766,-0.4785,-0.4798,-0.4821,-0.4835,-0.4854,-0.4866,-0.4879,-0.4884,-0.4894,-0.492,-0.4936,-0.4959,-0.4967,-0.4971,-0.4999,-0.4996,-0.4994,-0.4987,-0.5006,-0.5015,-0.5019,-0.4972,-0.4972,-0.4972,-0.4972,0,0,-0.4787,-0.4815,-0.4819,-0.483,-0.4852,-0.4867,-0.4888,-0.4909,-0.492,-0.4938,-0.4956,-0.4984,-0.4982,-0.4996,-0.5002,-0.5016,-0.5037,-0.5013,-0.5013,-0.5017,-0.5069,-0.5071,-0.5075,-0.5039,-0.5039,-0.504,-0.5068,0,-0.481,-0.4846,-0.4854,-0.4885,-0.4903,-0.4908,-0.4926,-0.4941,-0.4951,-0.4969,-0.498,-0.5,-0.4997,-0.5005,-0.5019,-0.5032,-0.5048,-0.503,-0.5056,-0.5057,-0.5052,-0.508,-0.5081,-0.5107,-0.5072,-0.5072,-0.5073,0,-0.4842,-0.486,-0.4892,-0.4912,-0.492,-0.4936,-0.4957,-0.4973,-0.4992,-0.4998,-0.5013,-0.5018,-0.5041,-0.5033,-0.5064,-0.5052,-0.5063,-0.5071,-0.5073,-0.5076,-0.5066,-0.5084,-0.5115,-0.5119,-0.5079,-0.5078,-0.5078,0,-0.4855,-0.4887,-0.491,-0.4919,-0.4943,-0.4954,-0.4965,-0.4983,-0.4996,-0.5014,-0.5023,-0.5044,-0.5056,-0.5073,-0.5084,-0.5077,-0.5115,-0.5108,-0.5122,-0.5122,-0.513,-0.5129,-0.5163,-0.5137,-0.5137,-0.5137,-0.5137,0,-0.4881,-0.49,-0.4916,-0.4931,-0.4954,-0.4964,-0.4986,-0.4997,-0.5013,-0.5031,-0.5036,-0.5053,-0.5067,-0.5085,-0.5095,-0.512,-0.5125,-0.5132,-0.5134,-0.5131,-0.5131,-0.5139,-0.5138,-0.5138,-0.5137,-0.5137,-0.5137,0,-0.4899,-0.491,-0.4936,-0.4957,-0.4963,-0.4978,-0.4996,-0.5011,-0.5022,-0.5044,-0.505,-0.5066,-0.5089,-0.5102,-0.513,-0.5136,-0.5165,-0.5166,-0.5158,-0.5159,-0.5173,-0.5172,-0.5214,-0.5221,-0.5189,-0.5189,-0.519,0,-0.4915,-0.493,-0.4952,-0.4964,-0.4974,-0.4993,-0.5006,-0.5017,-0.5031,-0.5053,-0.5066,-0.5089,-0.5107,-0.5143,-0.5158,-0.518,-0.5183,-0.5196,-0.5186,-0.5183,-0.5184,-0.5183,-0.5185,-0.5198,-0.5198,-0.5198,-0.5198,0,-0.4942,-0.4947,-0.4965,-0.4985,-0.5,-0.5017,-0.5033,-0.5043,-0.5057,-0.5072,-0.5095,-0.5109,-0.5138,-0.5161,-0.5184,-0.5197,-0.52,-0.5201,-0.5206,-0.5204,-0.5199,-0.5203,-0.5163,-0.5201,-0.52,-0.52,-0.52,-0.52,-0.496,-0.4974,-0.4991,-0.5012,-0.5025,-0.5041,-0.5056,-0.5068,-0.5087,-0.5111,-0.5116,-0.5141,-0.516,-0.5192,-0.5204,-0.5224,-0.5222,-0.5228,-0.523,-0.5232,-0.5233,-0.5195,-0.5229,-0.5229,-0.5228,-0.5228,-0.5228,0,-0.4988,-0.4999,-0.5018,-0.504,-0.5057,-0.5058,-0.5076,-0.509,-0.5111,-0.5128,-0.5147,-0.5173,-0.5196,-0.5213,-0.5236,-0.5249,-0.5251,-0.5255,-0.5254,-0.5257,-0.5233,-0.5227,-0.5252,-0.5252,-0.5252,-0.5252,-0.5252,-0.5252,-0.5004,-0.5028,-0.5035,-0.5067,-0.5078,-0.5101,-0.5112,-0.5127,-0.5141,-0.517,-0.5188,-0.5199,-0.5217,-0.5241,-0.5262,-0.5267,-0.5276,-0.5279,-0.5284,-0.5261,-0.5258,-0.5256,-0.525,-0.528,-0.528,-0.5306,-0.5306,-0.5307]},{"header":{"parameterUnit":"m.s-1","parameterCategory":1,"la1":30.2991,"la2":30.254,"lo1":-89.0895,"lo2":-89.0444,"dx":0.0017,"dy":0.0017,"nx":28,"ny":28,"refTime":"2022-12-07T03:00:00:Z","depth":0,"parameterNumber":3,"parameterNumberName":"V-component_of_WINDS"},"data":[0,0,0,0,0,0,0,0,0,0,0,0,0,0,0,0,0,0,0,0,0,0,0,0,0,0,0,0,0,0,0,0,0,0,0,0,0,0,0,0,0,0,0,0,0,0,0,0,0,0,0,0,0,0,0,0,0,0,1.6459,1.6459,0,1.6456,1.6456,1.6456,1.6466,1.6466,1.6467,1.6467,1.6462,1.6462,1.6461,0,0,0,0,0,0,0,0,0,0,0,0,0,1.6472,1.6472,1.6459,1.6459,1.6459,1.6456,1.6456,1.6456,1.6466,1.6466,1.6467,1.6467,1.6462,1.6462,1.6461,0,0,0,0,0,0,0,0,0,0,0,0,0,1.6468,1.6472,1.6459,1.6464,1.6464,1.6456,1.6456,1.6456,1.6466,1.6466,1.6467,1.6467,1.6462,1.6462,1.6461,1.6448,0,0,1.6459,1.6459,0,0,0,0,0,0,0,0,1.6468,1.6467,1.6463,1.6464,1.6464,1.6462,1.6459,1.6453,1.6466,1.6465,1.6467,1.6468,1.6461,1.6461,1.6459,1.6448,1.6448,1.6459,1.6459,1.6458,1.6458,0,0,0,0,0,0,0,1.6468,1.6467,1.6458,1.6463,1.6464,1.6466,1.6465,1.6458,1.6461,1.6465,1.6466,1.6466,1.6462,1.646,1.6459,1.6448,1.6459,1.6458,1.6458,1.6458,1.6425,1.6425,0,0,0,0,0,0,1.6468,1.6467,1.6458,1.6458,1.6467,1.6465,1.6465,1.6462,1.6461,1.6461,1.6465,1.6466,1.6461,1.646,1.6459,1.6444,1.6458,1.6458,1.6457,1.6426,1.6425,1.6425,0,0,0,0,0,0,1.6468,1.6467,1.6458,1.6463,1.6462,1.6464,1.6461,1.6462,1.646,1.6461,1.6461,1.6463,1.6461,1.646,1.6451,1.6444,1.6458,1.6457,1.6426,1.6426,1.6425,1.6414,0,0,0,0,0,0,1.6469,1.6467,1.6463,1.6463,1.6462,1.6451,1.6461,1.6462,1.6459,1.646,1.6459,1.6459,1.6461,1.6452,1.645,1.6444,1.6456,1.6427,1.6426,1.6425,1.6415,1.6413,1.6412,0,0,0,0,0,1.6469,1.6459,1.6463,1.6461,1.6456,1.645,1.645,1.6453,1.6459,1.6454,1.6454,1.6459,1.6445,1.6451,1.6449,1.6442,1.6428,1.6426,1.6425,1.6416,1.6414,1.6412,0,0,0,0,0,0,1.6458,1.646,1.6463,1.6453,1.6452,1.6452,1.6446,1.645,1.6447,1.6448,1.6452,1.6451,1.6442,1.6441,1.6447,1.643,1.6437,1.6436,1.6431,1.6428,1.6427,1.6427,1.6456,0,0,0,0,0,1.6454,1.645,1.6451,1.6443,1.6442,1.6444,1.6442,1.6444,1.6443,1.6442,1.6442,1.644,1.6435,1.6431,1.6427,1.6415,1.6415,1.6409,1.6407,1.6406,1.6405,1.6399,1.6396,1.6421,1.6421,1.6421,0,0,1.6447,1.6447,1.6444,1.644,1.644,1.6435,1.6443,1.6438,1.6434,1.6441,1.6433,1.6432,1.643,1.642,1.6415,1.6419,1.6398,1.6405,1.6403,1.6403,1.6397,1.6395,1.6393,1.642,1.6421,1.6421,0,0,1.6431,1.6431,1.6424,1.6423,1.6421,1.6423,1.6421,1.6421,1.6421,1.6413,1.6419,1.6414,1.6405,1.6403,1.6401,1.6385,1.6389,1.6383,1.6373,1.6367,1.6366,1.6364,1.6358,1.6356,1.6382,1.6382,1.6382,0,1.6422,1.6415,1.6419,1.6413,1.6411,1.6418,1.6411,1.6409,1.6406,1.6405,1.6409,1.6399,1.6397,1.6387,1.6383,1.6381,1.6379,1.6383,1.6366,1.6364,1.6362,1.6357,1.6355,1.6381,1.6381,1.6381,1.6381,0,1.6404,1.6399,1.6393,1.6391,1.6389,1.6382,1.6384,1.6381,1.6384,1.6385,1.6376,1.6375,1.6371,1.6368,1.6371,1.6358,1.6361,1.6365,1.6373,1.6359,1.6354,1.6352,1.638,1.638,1.638,1.6381,0,0,1.6382,1.6382,1.638,1.6379,1.6378,1.6374,1.6367,1.6363,1.6361,1.6358,1.6353,1.6345,1.635,1.6347,1.6349,1.6344,1.6331,1.6349,1.6349,1.6346,1.6318,1.6315,1.6312,1.6334,1.6333,1.6333,1.6318,0,1.6366,1.6356,1.6359,1.6348,1.6344,1.635,1.6344,1.6342,1.6343,1.6339,1.6339,1.6334,1.634,1.6339,1.6334,1.6334,1.6326,1.6335,1.6329,1.6328,1.633,1.631,1.6306,1.6292,1.6316,1.6316,1.6315,0,1.6348,1.6345,1.6334,1.6334,1.6332,1.6327,1.6324,1.632,1.6318,1.6319,1.6316,1.6319,1.6313,1.632,1.631,1.6317,1.6314,1.6314,1.6313,1.6313,1.6321,1.6309,1.6288,1.6286,1.6312,1.6313,1.6313,0,1.6333,1.6327,1.6319,1.6318,1.6318,1.6314,1.6314,1.6312,1.631,1.6307,1.6305,1.6301,1.6299,1.6295,1.6297,1.6302,1.6287,1.6295,1.6288,1.6288,1.6285,1.6285,1.6263,1.6282,1.6282,1.6282,1.6282,0,1.6316,1.6309,1.6313,1.6308,1.6301,1.6304,1.6296,1.6296,1.6295,1.629,1.6295,1.629,1.6293,1.6288,1.6289,1.6281,1.628,1.628,1.6281,1.628,1.628,1.6279,1.628,1.6282,1.6282,1.6282,1.6282,0,1.6299,1.6301,1.6293,1.6294,1.6293,1.6288,1.6288,1.6283,1.6284,1.6278,1.6277,1.6278,1.6273,1.6274,1.6269,1.6269,1.6259,1.6261,1.626,1.6261,1.6254,1.6255,1.6231,1.6228,1.6248,1.6248,1.6248,0,1.6288,1.6283,1.6283,1.628,1.628,1.6275,1.6273,1.6276,1.6273,1.6271,1.6267,1.6262,1.6259,1.625,1.625,1.6246,1.6247,1.6239,1.6247,1.6246,1.6248,1.6248,1.6248,1.6238,1.6237,1.6237,1.6237,0,1.6269,1.6271,1.6267,1.6264,1.6262,1.6259,1.6257,1.6255,1.6257,1.6254,1.6249,1.6246,1.6241,1.6236,1.6232,1.6231,1.6234,1.6235,1.6233,1.6232,1.6233,1.6233,1.6257,1.6235,1.6235,1.6236,1.6236,1.6236,1.6255,1.6251,1.6251,1.6247,1.6245,1.6243,1.624,1.624,1.6236,1.6232,1.6234,1.6228,1.6226,1.6221,1.622,1.6215,1.6218,1.6216,1.6215,1.6214,1.6214,1.6233,1.6214,1.6214,1.6214,1.6214,1.6214,0,1.6237,1.6237,1.6233,1.6231,1.6228,1.6231,1.6229,1.6226,1.6221,1.622,1.6216,1.621,1.6206,1.6206,1.6201,1.6198,1.6199,1.6196,1.6197,1.6197,1.6211,1.6213,1.6195,1.6195,1.6195,1.6195,1.6195,1.6195,1.6228,1.6221,1.6222,1.6214,1.6214,1.6209,1.6208,1.6206,1.6204,1.6198,1.6194,1.6194,1.6193,1.6188,1.6184,1.6184,1.6183,1.6179,1.618,1.6194,1.6196,1.6197,1.62,1.6179,1.6179,1.6166,1.6166,1.6166]}]]